TimeCDT,TemperatureF,Dew PointF,Humidity,Sea Level PressureIn,VisibilityMPH,Wind Direction,Wind SpeedMPH,Gust SpeedMPH,PrecipitationIn,Events,Conditions,WindDirDegrees,DateUTC
12:53 AM,73.9,71.1,91,29.99,10.0,Calm,Calm,-,N/A,,Clear,0,2013-10-15 05:53:00
1:53 AM,73.0,70.0,90,29.99,8.0,Calm,Calm,-,N/A,,Clear,0,2013-10-15 06:53:00
2:53 AM,73.0,71.1,93,29.98,7.0,SSE,3.5,-,N/A,,Clear,150,2013-10-15 07:53:00
3:53 AM,73.0,71.1,93,29.97,7.0,SSE,3.5,-,N/A,,Clear,150,2013-10-15 08:53:00
4:53 AM,72.0,70.0,93,29.96,6.0,SSE,4.6,-,N/A,,Clear,160,2013-10-15 09:53:00
5:53 AM,72.0,70.0,93,29.97,5.0,Calm,Calm,-,N/A,,Clear,0,2013-10-15 10:53:00
6:53 AM,72.0,70.0,93,29.96,8.0,Calm,Calm,-,N/A,,Clear,0,2013-10-15 11:53:00
7:53 AM,73.0,71.1,93,29.99,6.0,Calm,Calm,-,N/A,,Partly Cloudy,0,2013-10-15 12:53:00
8:53 AM,75.0,72.0,90,29.99,7.0,Calm,Calm,-,N/A,,Mostly Cloudy,0,2013-10-15 13:53:00
9:53 AM,78.1,73.0,84,30.00,10.0,SSE,4.6,-,N/A,,Partly Cloudy,160,2013-10-15 14:53:00
10:53 AM,82.9,72.0,69,29.99,10.0,South,10.4,-,N/A,,Partly Cloudy,190,2013-10-15 15:53:00
11:53 AM,84.0,70.0,63,29.98,10.0,South,9.2,-,N/A,,Partly Cloudy,180,2013-10-15 16:53:00
12:53 PM,84.9,71.1,63,29.95,10.0,SSW,4.6,-,N/A,,Mostly Cloudy,210,2013-10-15 17:53:00
1:53 PM,84.9,71.1,63,29.93,10.0,SSW,9.2,-,N/A,,Mostly Cloudy,210,2013-10-15 18:53:00
2:53 PM,87.1,70.0,57,29.90,10.0,SSW,11.5,-,N/A,,Partly Cloudy,210,2013-10-15 19:53:00
3:53 PM,87.1,70.0,57,29.89,10.0,South,10.4,-,N/A,,Scattered Clouds,180,2013-10-15 20:53:00
4:53 PM,84.9,70.0,61,29.88,10.0,South,15.0,-,N/A,,Clear,170,2013-10-15 21:53:00
5:53 PM,82.9,69.1,63,29.89,10.0,South,11.5,-,N/A,,Clear,180,2013-10-15 22:53:00
6:53 PM,81.0,69.1,67,29.90,10.0,South,9.2,-,N/A,,Clear,170,2013-10-15 23:53:00
7:53 PM,78.1,70.0,76,29.92,10.0,South,8.1,-,0.00,,Clear,170,2013-10-16 00:53:00
8:53 PM,75.0,70.0,84,29.93,10.0,South,5.8,-,N/A,,Clear,170,2013-10-16 01:53:00
9:53 PM,75.0,70.0,84,29.95,10.0,South,4.6,-,N/A,,Clear,180,2013-10-16 02:53:00
10:53 PM,73.9,70.0,87,29.95,10.0,South,3.5,-,N/A,,Clear,170,2013-10-16 03:53:00
11:53 PM,73.9,69.1,85,29.95,10.0,South,4.6,-,N/A,,Clear,180,2013-10-16 04:53:00